Flag for Estonia Weather past 2 weeks in Tallinn, Estonia

Now
30 °F

Low clouds.


Feels Like: 21 °F
Forecast: 30 / 33 °F
Wind: 10 mph from Southwest

Location: Tallinn

Current Time: Jan 28, 2015 at 1:37:05 AM

Latest Report: Jan 28, 2015 at 1:20 AM


Visibility: N/A

Pressure: 29.68 "Hg

Humidity: 93%

Dew point: 28 °F

Location of TallinnLocation

Historic Weather in Tallinn — Graph

°F

Tallinn temperature yesterday

Maximum temperature yesterday: 32 °F (at 1:20 PM)
Minimum temperature yesterday: 28 °F (at 4:20 PM)
Average temperature yesterday: 30 °F

Past Weeks' High & Low Weather Summary

 TemperatureHumidityPressure
High41 °F (Jan 16, 7:20 PM)100% (Jan 13, 12:20 AM)30.39 "Hg (Jan 13, 12:20 AM)
Low18 °F (Jan 22, 8:50 AM)75% (Jan 13, 11:20 AM)28.97 "Hg (Jan 13, 2:20 AM)
Average31 °F91%29.87 "Hg
* Reported Jan 13 12:20 AM — Jan 28 12:20 AM, Tallinn, Weather by CustomWeather, © 2014

Note: Actual official high and low records may vary slightly from our data, if they occured in-between our weather recording intervals... More about our weather records

Advertising

Tallinn weather history for previous 24 hours

 ConditionsComfort  
Time TempWeatherWind HumidityBarometerVisibility
12:20 AM
Jan 28
30 °FSnow. Low clouds.10 mph93%29.71 "Hg2 mi
11:50 PM
Jan 27
30 °FMixture of precip. Mostly cloudy.12 mph93%29.71 "Hg3 mi
11:20 PM30 °FLight snow. Mostly cloudy.12 mph93%29.71 "Hg4 mi
10:50 PM30 °FLight snow. Overcast.12 mph93%29.71 "Hg4 mi
10:20 PM30 °FLight snow. Mostly cloudy.10 mph93%29.71 "Hg5 mi
9:50 PM30 °FLight snow. Mostly cloudy.12 mph93%29.74 "Hg6 mi
9:20 PM30 °FLight snow. Mostly cloudy.9 mph93%29.74 "HgN/A
8:50 PM28 °FLight snow. Mostly cloudy.10 mph100%29.74 "Hg5 mi
8:20 PM28 °FLight snow. Mostly cloudy.8 mph100%29.74 "Hg4 mi
7:50 PM28 °FSnow. Overcast.9 mph93%29.74 "Hg1 mi
7:20 PM28 °FLight snow. Overcast.8 mph93%29.77 "Hg5 mi
6:50 PM28 °FOvercast.8 mph93%29.77 "HgN/A
6:20 PM28 °FOvercast.9 mph86%29.77 "HgN/A
5:50 PM28 °FOvercast.9 mph86%29.77 "HgN/A
5:20 PM28 °FOvercast.7 mph86%29.77 "HgN/A
4:50 PM28 °FPassing clouds.7 mph86%29.77 "HgN/A
4:20 PM28 °FPartly sunny.8 mph80%29.77 "HgN/A
3:50 PM30 °FPartly sunny.8 mph80%29.77 "HgN/A
3:20 PM30 °FPartly sunny.8 mph80%29.77 "HgN/A
2:50 PM32 °FPartly sunny.9 mph75%29.77 "HgN/A
2:20 PM30 °FScattered clouds.8 mph75%29.77 "HgN/A
1:50 PM32 °FPartly sunny.8 mph75%29.80 "HgN/A
1:20 PM32 °FPartly sunny.8 mph75%29.80 "HgN/A
12:50 PM30 °FOvercast.6 mph80%29.80 "HgN/A
12:20 PM30 °FOvercast.8 mph80%29.80 "HgN/A
11:50 AM30 °FOvercast.8 mph80%29.80 "HgN/A
11:20 AM30 °FOvercast.8 mph80%29.80 "HgN/A
10:50 AM30 °FOvercast.7 mph80%29.83 "HgN/A
10:20 AM30 °FOvercast.7 mph80%29.83 "HgN/A
9:50 AM30 °FOvercast.6 mph80%29.83 "HgN/A
9:20 AM30 °FOvercast.6 mph75%29.83 "HgN/A
8:50 AM30 °FOvercast.6 mph80%29.83 "HgN/A
8:20 AM30 °FOvercast.6 mph80%29.83 "HgN/A
7:50 AM30 °FOvercast.7 mph80%29.83 "HgN/A
7:20 AM30 °FOvercast.6 mph86%29.83 "HgN/A
6:50 AM30 °FOvercast.6 mph86%29.83 "HgN/A
6:20 AM30 °FLight snow. Overcast.7 mph86%29.83 "HgN/A
5:50 AM30 °FOvercast.7 mph86%29.83 "HgN/A
5:20 AM30 °FOvercast.7 mph86%29.83 "HgN/A
4:50 AM30 °FOvercast.7 mph86%29.83 "HgN/A
4:20 AM30 °FOvercast.8 mph93%29.83 "HgN/A
3:50 AM30 °FOvercast.8 mph93%29.86 "HgN/A
3:20 AM30 °FOvercast.9 mph93%29.86 "HgN/A
2:50 AM30 °FOvercast.8 mph93%29.86 "HgN/A
2:20 AM30 °FOvercast.8 mph86%29.86 "HgN/A
1:50 AM30 °FLight snow. Overcast.7 mph86%29.86 "HgN/A
1:20 AM30 °FOvercast.8 mph86%29.89 "HgN/A
Weather by CustomWeather, © 2014

See weather overviewHow to use our weather pages